Regional Weather Roundup
Issued by NWS

Home | Current Version | Previous Version | Graphics & Text | Print | Product List | Glossary On
Versions: 1 2 3 4 5 6 7 8 9 10 11 12 13 14 15 16 17 18 19 20 21 22 23 24 25 26 27
000
ASUS45 KBOU 240407
RWRCO

WEATHER ROUNDUP FOR COLORADO
NATIONAL WEATHER SERVICE DENVER/BOULDER CO
1000 PM MDT TUE MAY 23 2017

NOTE: "FAIR" INDICATES FEW OR NO CLOUDS BELOW 12000 FEET WITH NO
SIGNIFICANT WEATHER AND/OR OBSTRUCTIONS TO VISIBILITY.

COZ001>005-013-030-031-240500-
...NORTHWEST COLORADO...

CITY           SKY/WX    TMP DP  RH WIND       PRES   REMARKS
CRAIG          FAIR      45  34  65 CALM      30.14S
HAYDEN         FAIR      48  30  49 CALM      30.16S
MEEKER         FAIR      46  36  68 CALM      30.17R
RABBIT EARS PA FAIR      32  30  93 W5        30.33R WCI  27
STEAMBOAT SPGS FAIR      44  35  69 SE7       30.18S
WALDEN           N/A     41  28  60 SW3       30.23S
$$

COZ006>008-011-240500-
...WEST CENTRAL VALLEYS...

CITY           SKY/WX    TMP DP  RH WIND       PRES   REMARKS
GRAND JUNCTION FAIR      61  28  28 NE8       30.07R
MONTROSE       FAIR      55  30  38 SE8       30.16R
EAGLE          FAIR      48  30  49 E6        30.22R
RIFLE          FAIR      54  30  40 SE9       30.13R
DELTA          FAIR      63  29  28 N8        30.11R
NUCLA          FAIR      55  30  38 E10       30.17S
$$

COZ017>023-064>068-240500-
...SOUTHWEST COLORADO...

CITY           SKY/WX    TMP DP  RH WIND       PRES   REMARKS
DURANGO        FAIR      56  13  18 NW10      30.14R
CORTEZ         FAIR      50  33  52 E7        30.13S
PAGOSA SPRINGS FAIR      53   9  16 N3        30.19S
TELLURIDE      FAIR      46  20  36 S3        30.33R
WOLF CREEK PAS FAIR      32  12  43 NW7       30.42S WCI  26
$$

COZ009-010-012-014-032>034-037-058>063-240500-
...CENTRAL COLORADO...

CITY           SKY/WX    TMP DP  RH WIND       PRES   REMARKS
ASPEN          FAIR      42  27  55 S3        30.24R
BUENA VISTA    FAIR      46  22  38 NW6       30.21R
COPPER MTN     FAIR      32  21  64 NW9       30.38S WCI  24
BERTHOUD PASS  CLOUDY    23  12  63 NW33G39   30.33F WCI   5
COTTONWOOD PAS FAIR      45  14  29 NW6       30.28R
GUNNISON       FAIR      45  22  40 CALM      30.22R
KREMMLING      FAIR      45  36  70 CALM      30.23R
LEADVILLE      FAIR      36  20  52 N12       30.28R
MONARCH PASS   FAIR      32  14  47 NW7       30.48S WCI  26
SALIDA         FAIR      50  22  33 W5        30.26R
SUNLIGHT       FAIR      34  21  60 W7        30.40S WCI  28
WILKERSON PASS FAIR      32  21  64 NW8G17    30.35R WCI  25
$$

COZ069>075-240500-
...SAN LUIS VALLEY/SANGRE DE CRISTO MOUNTAINS...

CITY           SKY/WX    TMP DP  RH WIND       PRES   REMARKS
ALAMOSA        FAIR      53  22  29 N13       30.16R
DEL NORTE      FAIR      47  17  29 W6        30.20S
LA VETA PASS   FAIR      34  23  64 W12       30.38S WCI  25
SAGUACHE       FAIR      48  21  34 W8        30.19R
$$

COZ035-036-038>040-240500-
...NORTHERN COLORADO FRONT RANGE...

CITY           SKY/WX    TMP DP  RH WIND       PRES   REMARKS
DENVER INTL AP FAIR      50  35  56 E5        30.12R
DMNS CITY PARK   N/A     53  32  45 NE5       30.12R
AURORA         PTCLDY    47  35  62 E7        30.12R
FRONT RANGE AP NOT AVBL
ERIE MUNI ARPT FAIR      49  39  68 CALM      30.11R
BOULDER MUN AP FAIR      52  37  58 SW3       30.11R
CENTENNIAL     FAIR      49  35  58 SE3       30.13R
BROOMFIELD     PTCLDY    54  34  47 NE6       30.13R
FORT COLLINS   FAIR      52  35  52 CALM      30.11R
LONGMONT       FAIR      49  40  70 CALM      30.13R
$$

COZ041-046-047-076>085-087-088-240500-
...PIKES PEAK/PALMER DIVIDE AND SOUTHERN FOOTHILLS...

CITY           SKY/WX    TMP DP  RH WIND       PRES   REMARKS
COLO. SPRINGS  FAIR      53  32  44 NW5       30.14R
A. F. ACADEMY  FAIR      44  32  63 NE7       30.15R
SCHRIEVER AFB  FAIR      48  32  54 N12       30.14R
CHEYENNE MTN   FAIR      48  30  48 CALM      30.11S
ELLICOTT       FAIR     N/A N/A N/A E10       30.12R
FALCON         FAIR      43  32  64 NW5       30.17R
FORT CARSON    FAIR      54  30  40 W8        30.12R
LIMON          FAIR      34  32  92 N3        30.10R
MONUMENT HILL  FAIR      41  32  70 NE3       30.18R
CANON CITY     NOT AVBL
WALSENBURG     FAIR      46  41  81 SW8       30.14S
TRINIDAD       FAIR      47  35  63 SW7       30.14R
$$

COZ042>045-048>051-090-091-240500-
...NORTHEAST COLORADO...

CITY           SKY/WX    TMP DP  RH WIND       PRES   REMARKS
GREELEY ARPT   FAIR      51  38  60 CALM      30.09R
AKRON          FAIR      46  34  62 NE6       30.07R
BURLINGTON     FAIR      44  36  73 NW3       30.04S
WRAY           FAIR      45  36  70 N5        30.05R
YUMA           FAIR      41  36  81 N6        30.05R
STERLING       FAIR      43  37  81 CALM      30.04S
HOLYOKE        NOT AVBL
FORT MORGAN    FAIR      44  33  64 N9        30.05S
$$

COZ086-089-092>099-240500-
...SOUTHEAST COLORADO...

CITY           SKY/WX    TMP DP  RH WIND       PRES   REMARKS
PUEBLO         FAIR      54  39  57 SE3       30.08R
LA JUNTA       FAIR      54  35  48 CALM      30.07S
LAMAR          FAIR      48  37  65 CALM      30.03R
SPRINGFIELD      N/A     41  36  82 NW8       30.07R
$$




USA.gov is the U.S. government's official web portal to all federal, state and local government web resources and services.